| time (UTC) | temp F | wind direction | speed MPH | gust MPH | rain 1hr in | rain 24hr in | rain mn in | humidity % | barometer mb |
| 20260510205046 | 78 | 190 | 1.0 | 10.0 | 0.00 | 0.00 | 0.00 | 54 | 1012.3 |
| 20260510204020 | 78 | 180 | 0.0 | 4.0 | 0.00 | 0.00 | 0.00 | 53 | 1012.1 |
| 20260510203034 | 79 | 110 | 0.0 | 4.0 | 0.00 | 0.00 | 0.00 | 53 | 1012.0 |
| 20260510202027 | 80 | 123 | 0.0 | 3.0 | 0.00 | 0.00 | 0.00 | 52 | 1012.0 |
| 20260510201041 | 80 | 109 | 0.0 | 5.0 | 0.00 | 0.00 | 0.00 | 53 | 1012.1 |
| 20260510200037 | 79 | 115 | 0.0 | 6.0 | 0.00 | 0.00 | 0.00 | 53 | 1012.1 |
| 20260510195021 | 79 | 137 | 0.0 | 4.0 | 0.00 | 0.00 | 0.00 | 53 | 1012.1 |
| 20260510194015 | 80 | 132 | 0.0 | 3.0 | 0.00 | 0.00 | 0.00 | 53 | 1012.3 |
| 20260510193026 | 80 | 134 | 1.0 | 6.0 | 0.00 | 0.00 | 0.00 | 54 | 1012.6 |
| 20260510192038 | 81 | 119 | 0.0 | 7.0 | 0.00 | 0.00 | 0.00 | 52 | 1012.6 |
| 20260510191032 | 81 | 105 | 0.0 | 5.0 | 0.00 | 0.00 | 0.00 | 55 | 1012.5 |
| 20260510190019 | 79 | 215 | 0.0 | 2.0 | 0.00 | 0.00 | 0.00 | 55 | 1012.6 |
| 20260510185014 | 79 | 242 | 0.0 | 3.0 | 0.00 | 0.00 | 0.00 | 55 | 1012.7 |
| 20260510184059 | 79 | 302 | 0.0 | 4.0 | 0.00 | 0.00 | 0.00 | 54 | 1012.6 |
| 20260510183025 | 80 | 299 | 0.0 | 2.0 | 0.00 | 0.00 | 0.00 | 54 | 1012.7 |
| 20260510182020 | 82 | 296 | 0.0 | 2.0 | 0.00 | 0.00 | 0.00 | 51 | 1012.7 |
| 20260510181013 | 83 | 314 | 0.0 | 6.0 | 0.00 | 0.00 | 0.00 | 47 | 1012.8 |
| 20260510180041 | 81 | 243 | 1.0 | 7.0 | 0.00 | 0.00 | 0.00 | 49 | 1012.8 |
| 20260510175014 | 81 | 258 | 0.0 | 8.0 | 0.00 | 0.00 | 0.00 | 49 | 1012.9 |
| 20260510174027 | 81 | 264 | 0.0 | 9.0 | 0.00 | 0.00 | 0.00 | 50 | 1013.1 |
| 20260510173020 | 83 | 247 | 0.0 | 10.0 | 0.00 | 0.00 | 0.00 | 45 | 1012.9 |
| 20260510172014 | 83 | 231 | 0.0 | 3.0 | 0.00 | 0.00 | 0.00 | 56 | 1013.0 |
| 20260510171028 | 82 | 198 | 0.0 | 3.0 | 0.00 | 0.00 | 0.00 | 58 | 1013.1 |
| 20260510170015 | 80 | 140 | 0.0 | 1.0 | 0.00 | 0.00 | 0.00 | 60 | 1013.1 |
| 20260510165029 | 79 | 138 | 0.0 | 2.0 | 0.00 | 0.00 | 0.00 | 62 | 1013.1 |
| 20260510164022 | 79 | 140 | 0.0 | 3.0 | 0.00 | 0.00 | 0.00 | 60 | 1013.2 |
| 20260510163036 | 78 | 140 | 0.0 | 2.0 | 0.00 | 0.00 | 0.00 | 64 | 1013.3 |
| 20260510162020 | 78 | 140 | 1.0 | 4.0 | 0.00 | 0.00 | 0.00 | 65 | 1013.4 |
| 20260510161033 | 77 | 165 | 0.0 | 2.0 | 0.00 | 0.00 | 0.00 | 65 | 1013.3 |
| 20260510160018 | 76 | 175 | 0.0 | 1.0 | 0.00 | 0.00 | 0.00 | 65 | 1013.5 |
| 20260510155014 | 76 | 175 | 0.0 | 1.0 | 0.00 | 0.00 | 0.00 | 67 | 1013.5 |
| 20260510154028 | 75 | 175 | 0.0 | 0.0 | 0.00 | 0.00 | 0.00 | 65 | 1013.5 |
| 20260510153022 | 75 | 176 | 0.0 | 0.0 | 0.00 | 0.00 | 0.00 | 66 | 1013.3 |
| 20260510152015 | 74 | 176 | 0.0 | 0.0 | 0.00 | 0.00 | 0.00 | 68 | 1013.5 |
| 20260510151025 | 73 | 176 | 0.0 | 0.0 | 0.00 | 0.00 | 0.00 | 71 | 1013.4 |
| 20260510150032 | 71 | 176 | 0.0 | 1.0 | 0.00 | 0.00 | 0.00 | 72 | 1013.3 |
| 20260510145025 | 70 | 176 | 0.0 | 0.0 | 0.00 | 0.00 | 0.00 | 75 | 1013.2 |
| 20260510144038 | 69 | 176 | 0.0 | 0.0 | 0.00 | 0.00 | 0.00 | 76 | 1013.1 |
| 20260510143029 | 67 | 176 | 0.0 | 0.0 | 0.00 | 0.00 | 0.00 | 83 | 1013.1 |
| 20260510142042 | 65 | 176 | 0.0 | 0.0 | 0.00 | 0.00 | 0.00 | 86 | 1013.1 |
| 20260510141027 | 63 | 176 | 0.0 | 0.0 | 0.00 | 0.00 | 0.00 | 89 | 1013.2 |
| 20260510140013 | 62 | 175 | 0.0 | 0.0 | 0.00 | 0.00 | 0.00 | 90 | 1013.3 |
| 20260510135025 | 61 | 175 | 0.0 | 0.0 | 0.00 | 0.00 | 0.00 | 92 | 1013.2 |
| 20260510134049 | 60 | 175 | 0.0 | 0.0 | 0.00 | 0.00 | 0.00 | 93 | 1013.2 |
| 20260510133041 | 59 | 175 | 0.0 | 0.0 | 0.00 | 0.00 | 0.00 | 93 | 1013.1 |
| 20260510132026 | 59 | 175 | 0.0 | 0.0 | 0.00 | 0.00 | 0.00 | 94 | 1013.1 |
| 20260510131020 | 58 | 175 | 0.0 | 0.0 | 0.00 | 0.00 | 0.00 | 94 | 1013.2 |
| 20260510130023 | 58 | 175 | 0.0 | 0.0 | 0.00 | 0.00 | 0.00 | 94 | 1013.3 |
| 20260510125017 | 57 | 175 | 0.0 | 0.0 | 0.00 | 0.00 | 0.00 | 94 | 1013.7 |
| 20260510124101 | 57 | 175 | 0.0 | 0.0 | 0.00 | 0.00 | 0.00 | 94 | 1013.6 |
| 20260510123025 | 56 | 175 | 0.0 | 0.0 | 0.00 | 0.00 | 0.00 | 94 | 1013.7 |
| 20260510122019 | 56 | 175 | 0.0 | 0.0 | 0.00 | 0.00 | 0.00 | 93 | 1013.7 |
| 20260510121013 | 56 | 175 | 0.0 | 0.0 | 0.00 | 0.00 | 0.00 | 93 | 1013.4 |
| 20260510120020 | 55 | 175 | 0.0 | 0.0 | 0.00 | 0.00 | 0.00 | 93 | 1013.3 |
| 20260510115035 | 55 | 175 | 0.0 | 0.0 | 0.00 | 0.00 | 0.00 | 93 | 1013.2 |
| 20260510114028 | 54 | 173 | 0.0 | 0.0 | 0.00 | 0.00 | 0.00 | 93 | 1013.0 |
| 20260510113022 | 53 | 173 | 0.0 | 0.0 | 0.00 | 0.00 | 0.00 | 93 | 1012.9 |
| 20260510112016 | 53 | 173 | 0.0 | 0.0 | 0.00 | 0.00 | 0.00 | 92 | 1012.8 |
| 20260510111046 | 52 | 173 | 0.0 | 0.0 | 0.00 | 0.00 | 0.00 | 92 | 1012.6 |
| 20260510110012 | 52 | 173 | 0.0 | 0.0 | 0.00 | 0.00 | 0.00 | 92 | 1012.6 |
| 20260510105026 | 52 | 173 | 0.0 | 0.0 | 0.00 | 0.00 | 0.00 | 92 | 1012.3 |
| 20260510104040 | 52 | 173 | 0.0 | 0.0 | 0.00 | 0.00 | 0.00 | 91 | 1012.0 |
| 20260510103012 | 52 | 172 | 0.0 | 0.0 | 0.00 | 0.00 | 0.00 | 91 | 1011.7 |
| 20260510102027 | 52 | 173 | 0.0 | 0.0 | 0.00 | 0.00 | 0.00 | 91 | 1011.7 |
| 20260510101022 | 52 | 173 | 0.0 | 0.0 | 0.00 | 0.00 | 0.00 | 91 | 1011.7 |
| 20260510100028 | 53 | 173 | 0.0 | 0.0 | 0.00 | 0.00 | 0.00 | 91 | 1011.7 |
| 20260510095042 | 53 | 173 | 0.0 | 0.0 | 0.00 | 0.00 | 0.00 | 91 | 1011.7 |
| 20260510094035 | 53 | 173 | 0.0 | 0.0 | 0.00 | 0.00 | 0.00 | 91 | 1011.8 |
| 20260510093028 | 53 | 173 | 0.0 | 0.0 | 0.00 | 0.00 | 0.00 | 91 | 1011.8 |
| 20260510092022 | 53 | 173 | 0.0 | 0.0 | 0.00 | 0.00 | 0.00 | 91 | 1011.6 |
| 20260510091017 | 53 | 173 | 0.0 | 0.0 | 0.00 | 0.00 | 0.00 | 91 | 1011.6 |
| 20260510090023 | 53 | 173 | 0.0 | 0.0 | 0.00 | 0.00 | 0.00 | 91 | 1011.4 |
| 20260510085017 | 53 | 173 | 0.0 | 0.0 | 0.00 | 0.00 | 0.00 | 91 | 1011.4 |
| 20260510084031 | 53 | 173 | 0.0 | 0.0 | 0.00 | 0.00 | 0.00 | 91 | 1011.3 |
| 20260510083026 | 53 | 173 | 0.0 | 0.0 | 0.00 | 0.00 | 0.00 | 90 | 1011.2 |
| 20260510082039 | 53 | 173 | 0.0 | 0.0 | 0.00 | 0.00 | 0.00 | 90 | 1011.1 |
| 20260510081024 | 53 | 173 | 0.0 | 0.0 | 0.00 | 0.00 | 0.00 | 90 | 1011.1 |
| 20260510080041 | 53 | 173 | 0.0 | 0.0 | 0.00 | 0.00 | 0.00 | 89 | 1010.8 |
| 20260510075033 | 53 | 173 | 0.0 | 0.0 | 0.00 | 0.00 | 0.00 | 89 | 1010.8 |
| 20260510074015 | 54 | 173 | 0.0 | 0.0 | 0.00 | 0.00 | 0.00 | 89 | 1010.7 |
| 20260510073054 | 54 | 173 | 0.0 | 0.0 | 0.00 | 0.00 | 0.00 | 89 | 1010.6 |
| 20260510072017 | 54 | 173 | 0.0 | 0.0 | 0.00 | 0.00 | 0.00 | 89 | 1010.7 |
| 20260510071028 | 54 | 173 | 0.0 | 0.0 | 0.00 | 0.00 | 0.00 | 89 | 1010.6 |
| 20260510070016 | 55 | 173 | 0.0 | 0.0 | 0.00 | 0.00 | 0.00 | 89 | 1010.4 |
| 20260510065058 | 55 | 173 | 0.0 | 0.0 | 0.00 | 0.00 | 0.00 | 89 | 1010.2 |
| 20260510064030 | 55 | 173 | 0.0 | 0.0 | 0.00 | 0.00 | 0.00 | 89 | 1010.2 |
| 20260510063017 | 55 | 173 | 0.0 | 0.0 | 0.00 | 0.00 | 0.00 | 89 | 1010.2 |
| 20260510062013 | 55 | 173 | 0.0 | 0.0 | 0.00 | 0.00 | 0.00 | 89 | 1010.2 |
| 20260510061026 | 55 | 173 | 0.0 | 0.0 | 0.00 | 0.00 | 0.00 | 89 | 1010.2 |
| 20260510060013 | 56 | 173 | 0.0 | 0.0 | 0.00 | 0.00 | 0.00 | 88 | 1010.3 |
| 20260510055026 | 56 | 173 | 0.0 | 0.0 | 0.00 | 0.00 | 0.00 | 88 | 1010.4 |
| 20260510054020 | 56 | 173 | 0.0 | 0.0 | 0.00 | 0.00 | 0.00 | 88 | 1010.4 |
| 20260510053015 | 56 | 173 | 0.0 | 0.0 | 0.00 | 0.00 | 0.00 | 88 | 1010.5 |
| 20260510052029 | 56 | 173 | 0.0 | 0.0 | 0.00 | 0.00 | 0.00 | 88 | 1010.4 |
| 20260510051014 | 56 | 173 | 0.0 | 0.0 | 0.00 | 0.00 | 0.00 | 87 | 1010.4 |
| 20260510050029 | 56 | 173 | 0.0 | 0.0 | 0.00 | 0.00 | 0.00 | 87 | 1010.5 |
| 20260510045013 | 56 | 173 | 0.0 | 0.0 | 0.00 | 0.00 | 0.00 | 86 | 1010.6 |
| 20260510044036 | 57 | 173 | 0.0 | 0.0 | 0.00 | 0.00 | 0.00 | 86 | 1010.6 |
| 20260510043029 | 57 | 173 | 0.0 | 0.0 | 0.00 | 0.00 | 0.00 | 86 | 1010.6 |
| 20260510042041 | 57 | 173 | 0.0 | 0.0 | 0.00 | 0.00 | 0.00 | 85 | 1010.6 |
| 20260510041036 | 57 | 173 | 0.0 | 0.0 | 0.00 | 0.00 | 0.00 | 85 | 1010.4 |
| 20260510040042 | 57 | 173 | 0.0 | 0.0 | 0.00 | 0.00 | 0.00 | 84 | 1010.4 |
| 20260510035015 | 57 | 173 | 0.0 | 0.0 | 0.00 | 0.00 | 0.00 | 84 | 1010.5 |
| 20260510034026 | 58 | 173 | 0.0 | 0.0 | 0.00 | 0.00 | 0.00 | 84 | 1010.3 |
| 20260510033041 | 58 | 173 | 0.0 | 0.0 | 0.00 | 0.00 | 0.00 | 84 | 1010.4 |
| 20260510032034 | 58 | 173 | 0.0 | 0.0 | 0.00 | 0.00 | 0.00 | 84 | 1010.4 |
| 20260510031047 | 58 | 172 | 0.0 | 0.0 | 0.00 | 0.00 | 0.00 | 84 | 1010.3 |
| 20260510030050 | 59 | 173 | 0.0 | 0.0 | 0.00 | 0.00 | 0.00 | 83 | 1010.2 |
| 20260510025022 | 59 | 173 | 0.0 | 0.0 | 0.00 | 0.00 | 0.00 | 83 | 1010.2 |
| 20260510024015 | 59 | 173 | 0.0 | 0.0 | 0.00 | 0.00 | 0.00 | 83 | 1010.2 |
| 20260510023029 | 60 | 173 | 0.0 | 0.0 | 0.00 | 0.00 | 0.00 | 83 | 1010.2 |
| 20260510022022 | 60 | 173 | 0.0 | 0.0 | 0.00 | 0.00 | 0.00 | 83 | 1010.2 |
| 20260510021037 | 60 | 173 | 0.0 | 0.0 | 0.00 | 0.00 | 0.00 | 83 | 1010.3 |
| 20260510020022 | 61 | 173 | 0.0 | 0.0 | 0.00 | 0.00 | 0.00 | 83 | 1010.2 |
| 20260510015017 | 61 | 173 | 0.0 | 0.0 | 0.00 | 0.00 | 0.00 | 83 | 1010.1 |
| 20260510014031 | 61 | 173 | 0.0 | 0.0 | 0.00 | 0.00 | 0.00 | 83 | 1010.0 |
| 20260510013016 | 62 | 173 | 0.0 | 0.0 | 0.00 | 0.00 | 0.00 | 83 | 1009.9 |
| 20260510012101 | 62 | 173 | 0.0 | 0.0 | 0.00 | 0.00 | 0.00 | 81 | 1009.9 |
| 20260510011033 | 62 | 173 | 0.0 | 0.0 | 0.00 | 0.00 | 0.00 | 81 | 1009.7 |
| 20260510010040 | 63 | 173 | 0.0 | 0.0 | 0.00 | 0.00 | 0.00 | 81 | 1009.7 |
| 20260510005034 | 63 | 173 | 0.0 | 0.0 | 0.00 | 0.00 | 0.00 | 80 | 1009.6 |
| 20260510004018 | 64 | 173 | 0.0 | 0.0 | 0.00 | 0.00 | 0.00 | 79 | 1009.5 |
| 20260510003057 | 64 | 173 | 0.0 | 0.0 | 0.00 | 0.00 | 0.00 | 79 | 1009.4 |
| 20260510002022 | 65 | 173 | 0.0 | 0.0 | 0.00 | 0.00 | 0.00 | 78 | 1009.4 |
| 20260510001016 | 65 | 173 | 0.0 | 0.0 | 0.00 | 0.00 | 0.00 | 77 | 1009.4 |
| 20260510000021 | 66 | 173 | 0.0 | 0.0 | 0.00 | 0.00 | 0.00 | 76 | 1009.2 |
| 20260509235015 | 66 | 173 | 0.0 | 0.0 | 0.00 | 0.00 | 0.00 | 75 | 1009.1 |
| 20260509234028 | 67 | 173 | 0.0 | 0.0 | 0.00 | 0.00 | 0.00 | 73 | 1009.1 |
| 20260509233023 | 67 | 173 | 0.0 | 0.0 | 0.00 | 0.00 | 0.00 | 71 | 1008.9 |
| 20260509232017 | 68 | 173 | 0.0 | 0.0 | 0.00 | 0.00 | 0.00 | 71 | 1008.8 |
| 20260509231032 | 68 | 173 | 0.0 | 1.0 | 0.00 | 0.00 | 0.00 | 71 | 1008.9 |
| 20260509230019 | 69 | 173 | 0.0 | 0.0 | 0.00 | 0.00 | 0.00 | 71 | 1008.8 |
| 20260509225030 | 69 | 173 | 0.0 | 0.0 | 0.00 | 0.00 | 0.00 | 70 | 1008.7 |
| 20260509224024 | 69 | 173 | 0.0 | 0.0 | 0.00 | 0.00 | 0.00 | 70 | 1008.9 |
| 20260509223039 | 70 | 173 | 0.0 | 0.0 | 0.00 | 0.00 | 0.00 | 69 | 1008.9 |
| 20260509222054 | 70 | 173 | 0.0 | 1.0 | 0.00 | 0.00 | 0.00 | 68 | 1008.9 |
| 20260509221028 | 70 | 173 | 0.0 | 0.0 | 0.00 | 0.00 | 0.00 | 69 | 1009.0 |
| 20260509220033 | 70 | 173 | 0.0 | 0.0 | 0.00 | 0.00 | 0.00 | 70 | 1008.9 |
| 20260509215027 | 69 | 173 | 0.0 | 1.0 | 0.00 | 0.00 | 0.00 | 70 | 1009.0 |
| 20260509214040 | 70 | 158 | 0.0 | 0.0 | 0.00 | 0.00 | 0.00 | 69 | 1009.0 |
| 20260509213052 | 69 | 158 | 0.0 | 0.0 | 0.00 | 0.00 | 0.00 | 71 | 1009.1 |
| 20260509212016 | 69 | 158 | 0.0 | 0.0 | 0.00 | 0.00 | 0.00 | 69 | 1009.1 |
| 20260509211039 | 69 | 158 | 0.0 | 1.0 | 0.00 | 0.00 | 0.00 | 70 | 1009.0 |
| 20260509210016 | 68 | 150 | 0.0 | 0.0 | 0.00 | 0.00 | 0.00 | 71 | 1008.9 |